STARLINK-35358

Last updated on Wed Dec 31 2025 00:02:06 GMT+0000 (Coordinated Universal Time)

1 66564U 25268H 25364.58335648 .00051563 00000+0 18719-2 0 9999 2 66564 43.0005 17.1853 0001729 278.4994 44.8858 15.27549654 6021
UTC large
Height (km)
Speed (km/s)
/
Latitude / Longitude
Inclination (degrees)
Orbital Period (minutes)
Azimuth
Elevation
Range (km)
Doppler Factor

Next 0 passes for location: London (51.5072 / 0.1276)

Sorry there are no passes over London.